{"data":{"norad_id":66091,"intl_designator":"2025-236F","name":"STARLINK-35532","alt_names":[],"object_type":"PAYLOAD","status":"ACTIVE","operator":null,"country":"US","launch_date":"2025-10-19","launch_site_code":"AFWTR","launch_vehicle":null,"mission":null,"orbit_class":"UNKNOWN","rcs_meters":null,"size_class":null,"mass_kg":null,"dimensions":null,"purposes":["comms"],"wikipedia_slug":null,"has_3d_model":false,"image_url":null,"decayed_at":null,"tle_current":{"epoch":"2026-05-25T03:14:15.105984Z","epoch_age_seconds":77167,"freshness":"FRESH","line1":"1 66091U 25236F   26145.13489706  .00026008  00000+0  88690-3 0  9995","line2":"2 66091  53.1569 108.4376 0001317  90.5945 269.5206 15.30210148 34659","mean_motion":15.30210148,"eccentricity":0.0001317,"inclination_deg":53.1569,"raan_deg":108.4376,"arg_perigee_deg":90.5945,"mean_anomaly_deg":269.5206,"bstar":0.0008869,"rev_number":3465,"period_min":94.104721621543,"perigee_km":474.28218701093,"apogee_km":476.08735196501,"semimajor_km":6853.321769488,"source":"CELESTRAK","updated_at":"2026-05-25T13:38:21.027558Z"}}}